Montpelier, VT

1:03 PM EST on November 22, 2019 (GMT -0500)
Knapp State

Weather History for KMPV - October, 2019

Change the Weather History Date:

Monday, October 21, 2019

  Actual Average Record
Temperature  
Mean Temperature 48 °F 44 °F  
Max Temperature 61 °F 54 °F 77 °F (1979)
Min Temperature 36 °F 34 °F 15 °F (1972)
Degree Days  
Heating Degree Days 16 21  
Month to date heating degree days 373 373  
Since 1 July heating degree days 683 728  
Cooling Degree Days 0 0  
Month to date cooling degree days 0 0  
Year to date cooling degree days 220 263  
Moisture  
Dew Point 41 °F    
Average Humidity 89    
Maximum Humidity 100    
Minimum Humidity 50    
Precipitation  
Precipitation 0.00 in 0.10 in 1.41 in (1964)
Month to date precipitation 3.90 2.40  
Year to date precipitation 41.51 30.32  
Sea Level Pressure  
Sea Level Pressure 30.18 in    
Wind  
Wind Speed 1 mph ()    
Max Wind Speed 7 mph    
Max Gust Speed 10 mph    
Visibility 5.2 miles    
Events Fog    
T = Trace of Precipitation, MM = Missing Value Source: Averaged Metar Reports

Daily Weather History Graph

Daily Weather History Graph

Search for Another Location

Airport or City:

Astronomy

Oct. 21, 2019 Rise Set
Actual Time 7:12 AM EDT 5:56 PM EDT
Civil Twilight 6:42 AM EDT 6:26 PM EDT
Nautical Twilight 6:09 AM EDT 6:59 PM EDT
Astronomical Twilight 5:35 AM EDT 7:33 PM EDT
Moon No Moon Rise 2:35 PM EDT (10/21)
Length of Visible Light 11h 43m
Length of Day
10h 44m
Waning Gibbous, 48% of the Moon is Illuminated
Oct 21
Waning Gibbous
Oct 27
New
Nov 4
First Quarter
Nov 12
Full
Nov 19
Last Quarter

Hourly Weather History & Observations

Time (EDT) Temp. Windchill Dew Point Humidity Pressure Visibility Wind Dir Wind Speed Gust Speed Precip Events Conditions
12:51 AM 39.0 °F - 39.0 °F 100% 30.12 in 10.0 mi Calm Calm - N/A   Clear
1:43 AM 37.9 °F - 37.9 °F 100% 30.10 in 2.5 mi Calm Calm - N/A   Scattered Clouds
1:47 AM 37.4 °F - 37.4 °F 100% 30.10 in 1.5 mi Calm Calm - N/A   Mostly Cloudy
1:51 AM 37.0 °F - 36.0 °F 96% 30.13 in 0.8 mi Calm Calm - N/A   Mist
2:51 AM 39.0 °F 36.8 °F 39.0 °F 100% 30.13 in 0.2 mi South 3.5 mph - N/A Fog Fog
3:51 AM 39.9 °F - 39.9 °F 100% 30.14 in 0.2 mi Calm Calm - N/A Fog Fog
4:51 AM 39.0 °F - 39.0 °F 100% 30.15 in 0.2 mi Calm Calm - N/A Fog Fog
5:51 AM 39.0 °F - 39.0 °F 100% 30.17 in 0.2 mi Calm Calm - N/A Fog Fog
6:51 AM 39.0 °F 36.8 °F 37.9 °F 96% 30.19 in 0.2 mi East 3.5 mph - N/A Fog Fog
7:51 AM 39.0 °F - 39.0 °F 100% 30.20 in 0.2 mi Calm Calm - N/A Fog Fog
8:51 AM 39.0 °F - 39.0 °F 100% 30.21 in 0.2 mi Calm Calm - N/A Fog Fog
9:51 AM 39.9 °F - 39.9 °F 100% 30.20 in 0.2 mi Calm Calm - N/A Fog Fog
10:51 AM 43.0 °F - 42.1 °F 97% 30.22 in 0.2 mi Calm Calm - N/A Fog Fog
11:38 AM 44.1 °F - 44.1 °F 100% 30.19 in 1.2 mi Calm Calm - N/A   Overcast
11:44 AM 45.0 °F - 45.0 °F 100% 30.19 in 2.0 mi Calm Calm - N/A   Overcast
11:51 AM 46.0 °F - 45.0 °F 96% 30.22 in 7.0 mi Calm Calm - N/A   Mostly Cloudy
12:51 PM 54.0 °F - 45.0 °F 72% 30.20 in 10.0 mi NNW 3.5 mph - N/A   Clear
1:51 PM 57.0 °F - 43.0 °F 59% 30.17 in 10.0 mi Calm Calm - N/A   Clear
2:51 PM 59.0 °F - 41.0 °F 51% 30.16 in 10.0 mi Calm Calm - N/A   Clear
3:51 PM 61.0 °F - 42.1 °F 50% 30.15 in 10.0 mi NE 5.8 mph - N/A   Clear
4:51 PM 61.0 °F - 44.1 °F 54% 30.17 in 10.0 mi Calm Calm - N/A   Clear
5:51 PM 51.1 °F - 44.1 °F 77% 30.18 in 10.0 mi South 3.5 mph - N/A   Clear
6:51 PM 46.0 °F 43.9 °F 42.1 °F 86% 30.21 in 10.0 mi South 4.6 mph - N/A   Clear
7:51 PM 45.0 °F - 41.0 °F 86% 30.21 in 10.0 mi Calm Calm - N/A   Clear
8:51 PM 42.1 °F - 39.9 °F 92% 30.22 in 10.0 mi Calm Calm - N/A   Clear
9:51 PM 39.9 °F - 37.9 °F 93% 30.23 in 10.0 mi Calm Calm - N/A   Clear
10:51 PM 39.0 °F - 37.9 °F 96% 30.21 in 10.0 mi Calm Calm - N/A   Clear
11:51 PM 39.9 °F - 39.0 °F 97% 30.21 in 10.0 mi Calm Calm - N/A   Clear